UAE265 OMDB-VVNB

Flight info

Callsign UAE265
Flight time N/A
Altitude 39000
Route IVURO M677 LALDO B505 NADSO A777 VAXIM L301 RASKI L639 BPL A791 CEA B465 CTG/N0485F410 B465 AKSAG B214 LADON/K0891F410 B214 BQ W21 HUVAN HUVAN3E
Aircraft A388/J-SADE2E3FGHIJ3J4J5M1RWXY/LB1D1

Departure

Time 2026-04-20 14:45
Airport Dubai International Airport (OMDB)

Arrival

Time N/A
Airport Noi Bai International Airport (VVNB)
Time Latitude Longitude Altitude Speed Heading
2026-04-20 14:06 25.24841 55.35949 14 ft 0 kts 32°
2026-04-20 14:27 25.24837 55.35946 8 ft 2 kts 32°
2026-04-20 14:27 25.24823 55.35937 16 ft 2 kts 29°
2026-04-20 14:27 25.24809 55.35929 16 ft 2 kts 26°
2026-04-20 14:27 25.24794 55.35921 17 ft 2 kts 23°
2026-04-20 14:28 25.24778 55.35915 17 ft 2 kts 19°
2026-04-20 14:28 25.24763 55.35910 16 ft 2 kts 13°
2026-04-20 14:28 25.24746 55.35908 16 ft 2 kts
2026-04-20 14:28 25.24730 55.35908 15 ft 2 kts 358°
2026-04-20 14:29 25.24714 55.35911 15 ft 2 kts 346°
2026-04-20 14:29 25.24699 55.35918 17 ft 2 kts 334°
2026-04-20 14:29 25.24686 55.35928 16 ft 2 kts 321°
2026-04-20 14:29 25.24675 55.35941 16 ft 2 kts 309°
2026-04-20 14:30 25.24671 55.35947 16 ft 0 kts 306°
2026-04-20 14:32 25.24672 55.35946 16 ft 1 kts 305°
2026-04-20 14:32 25.24685 55.35925 16 ft 5 kts 303°
2026-04-20 14:32 25.24710 55.35879 16 ft 9 kts 300°
2026-04-20 14:32 25.24745 55.35814 14 ft 11 kts 301°
2026-04-20 14:33 25.24781 55.35750 14 ft 9 kts 302°
2026-04-20 14:33 25.24820 55.35683 14 ft 11 kts 304°
2026-04-20 14:33 25.24866 55.35611 14 ft 10 kts 306°
2026-04-20 14:33 25.24909 55.35543 14 ft 12 kts 302°
2026-04-20 14:34 25.24953 55.35462 14 ft 13 kts 301°
2026-04-20 14:34 25.25005 55.35371 14 ft 14 kts 302°
2026-04-20 14:34 25.25061 55.35273 14 ft 16 kts 303°
2026-04-20 14:34 25.25126 55.35172 14 ft 16 kts 306°
2026-04-20 14:35 25.25186 55.35073 12 ft 12 kts 300°
2026-04-20 14:35 25.25217 55.35014 14 ft 10 kts 300°
2026-04-20 14:35 25.25257 55.34940 14 ft 12 kts 301°
2026-04-20 14:35 25.25314 55.34859 15 ft 14 kts 317°
2026-04-20 14:36 25.25404 55.34813 15 ft 15 kts 355°
2026-04-20 14:36 25.25507 55.34841 15 ft 16 kts 27°
2026-04-20 14:36 25.25610 55.34907 15 ft 18 kts 32°
2026-04-20 14:36 25.25721 55.34981 15 ft 19 kts 31°
2026-04-20 14:37 25.25798 55.35034 15 ft 6 kts 31°
2026-04-20 14:37 25.25847 55.35066 15 ft 10 kts 31°
2026-04-20 14:37 25.25917 55.35112 15 ft 13 kts 32°
2026-04-20 14:37 25.26001 55.35169 15 ft 15 kts 31°
2026-04-20 14:38 25.26082 55.35224 15 ft 11 kts 32°
2026-04-20 14:38 25.26111 55.35291 15 ft 10 kts 103°
2026-04-20 14:38 25.26075 55.35374 15 ft 13 kts 121°
2026-04-20 14:38 25.26020 55.35469 14 ft 16 kts 121°
2026-04-20 14:39 25.25961 55.35582 14 ft 18 kts 120°
2026-04-20 14:39 25.25893 55.35705 14 ft 20 kts 123°
2026-04-20 14:39 25.25818 55.35837 14 ft 21 kts 121°
2026-04-20 14:39 25.25740 55.35976 14 ft 22 kts 121°
2026-04-20 14:40 25.25662 55.36116 14 ft 20 kts 121°
2026-04-20 14:40 25.25589 55.36251 14 ft 21 kts 121°
2026-04-20 14:40 25.25511 55.36391 14 ft 22 kts 121°
2026-04-20 14:40 25.25430 55.36536 14 ft 23 kts 122°
2026-04-20 14:41 25.25348 55.36685 14 ft 22 kts 122°
2026-04-20 14:41 25.25271 55.36818 14 ft 21 kts 121°
2026-04-20 14:41 25.25197 55.36960 14 ft 22 kts 121°
2026-04-20 14:41 25.25115 55.37105 14 ft 23 kts 122°
2026-04-20 14:42 25.25033 55.37255 14 ft 23 kts 121°
2026-04-20 14:42 25.24948 55.37409 15 ft 24 kts 121°
2026-04-20 14:42 25.24863 55.37568 15 ft 24 kts 121°
2026-04-20 14:42 25.24776 55.37725 17 ft 24 kts 122°
2026-04-20 14:43 25.24691 55.37874 16 ft 19 kts 118°
2026-04-20 14:43 25.24693 55.37957 16 ft 6 kts 51°
2026-04-20 14:43 25.24724 55.37989 16 ft 18 kts 34°
2026-04-20 14:43 25.24799 55.38030 16 ft 14 kts 352°
2026-04-20 14:44 25.24827 55.38002 16 ft 11 kts 300°
2026-04-20 14:44 25.25008 55.37664 15 ft 95 kts 301°
2026-04-20 14:44 25.25485 55.36801 14 ft 161 kts 301°
2026-04-20 14:44 25.26070 55.35766 252 ft 182 kts 302°
2026-04-20 14:45 25.26712 55.34635 1002 ft 168 kts 301°
2026-04-20 14:45 25.27325 55.33519 1453 ft 173 kts 301°
2026-04-20 14:45 25.27963 55.32355 1789 ft 183 kts 301°
2026-04-20 14:45 25.28639 55.31123 1926 ft 197 kts 302°
2026-04-20 14:46 25.29561 55.29953 2019 ft 209 kts 327°
2026-04-20 14:46 25.30976 55.29435 2137 ft 227 kts 359°
2026-04-20 14:46 25.32584 55.29553 2638 ft 233 kts
2026-04-20 14:46 25.34177 55.29644 3265 ft 233 kts
2026-04-20 14:47 25.35795 55.29699 3975 ft 233 kts
2026-04-20 14:47 25.37418 55.29737 4647 ft 234 kts
2026-04-20 14:47 25.39044 55.29826 5294 ft 236 kts 11°
2026-04-20 14:48 25.41636 55.32033 6437 ft 252 kts 50°
2026-04-20 14:48 25.42752 55.33638 6647 ft 273 kts 51°
2026-04-20 14:48 25.43917 55.35320 7102 ft 281 kts 50°
2026-04-20 14:48 25.45127 55.37035 7718 ft 284 kts 50°
2026-04-20 14:49 25.46364 55.38758 8340 ft 288 kts 49°
2026-04-20 14:49 25.47624 55.40493 8968 ft 291 kts 49°
2026-04-20 14:49 25.48873 55.42259 9579 ft 295 kts 56°
2026-04-20 14:49 25.49537 55.43954 10030 ft 301 kts 76°
2026-04-20 14:50 25.49625 55.46302 10366 ft 318 kts 97°
2026-04-20 14:50 25.49093 55.48755 10526 ft 336 kts 105°
2026-04-20 14:50 25.48355 55.51277 10674 ft 353 kts 107°
2026-04-20 14:50 25.47575 55.53902 11041 ft 362 kts 106°
2026-04-20 14:51 25.46821 55.56576 11556 ft 366 kts 105°
2026-04-20 14:51 25.46097 55.59286 12087 ft 369 kts 104°
2026-04-20 14:51 25.45386 55.62040 12612 ft 374 kts 104°
2026-04-20 14:51 25.44691 55.64781 12973 ft 378 kts 104°
2026-04-20 14:52 25.43981 55.67598 13025 ft 379 kts 104°
2026-04-20 14:52 25.43431 55.69783 13027 ft 378 kts 104°